AO-07 1 07530U 74089B 15167.83951373 -.00000038 00000-0 36990-4 0 9995 2 07530 101.5201 143.3708 0011607 305.7087 112.5113 12.53614916857213 FO-29 1 24278U 96046B 15169.49349613 -.00000017 00000-0 16348-4 0 9994 2 24278 098.5402 138.1084 0351479 067.4868 047.0393 13.53053244930206 SO-33 1 25509U 98061B 15168.64072932 .00000277 00000-0 44040-4 0 9991 2 25509 031.4306 248.9520 0347782 077.3593 286.5681 14.30010702869484 RS-22 1 27939U 03042A 15169.64740947 .00000788 00000-0 15165-3 0 9996 2 27939 097.8419 331.4750 0013875 028.2235 331.9703 14.66070196626403 HO-68 1 36122U 09072B 15169.83952212 -.00000059 00000-0 -43517-4 0 9996 2 36122 100.1953 214.5877 0008157 113.6437 246.5538 13.16327660264678 AO-73 1 39444U 13066AE 15169.91972100 .00001745 00000-0 22879-3 0 9999 2 39444 097.7303 232.6143 0061178 129.3440 231.3217 14.80255735 83675 EO-79 1 40025U 14033R 15169.89829625 .00001453 00000-0 16759-3 0 9997 2 40025 097.9527 070.1670 0012891 172.2336 187.9081 14.87163213 54052 UO-11 1 14781U 84021B 15169.11380470 .00000727 00000-0 97176-4 0 9992 2 14781 097.8017 226.1735 0010020 071.9243 288.3061 14.82417995682161 AO-16 1 20439U 90005D 15168.83898256 .00000108 00000-0 55708-4 0 9990 2 20439 098.5404 105.0243 0011273 153.0211 271.2369 14.32549055326832 LO-19 1 20442U 90005G 15169.11148213 .00000108 00000-0 55408-4 0 9994 2 20442 098.5114 104.8473 0012470 141.0971 219.1113 14.32741413327073 AO-27 1 22825U 93061C 15169.11565083 .00000090 00000-0 52477-4 0 9997 2 22825 098.7086 119.2248 0007543 312.0504 113.5055 14.29886115133079 IO-26 1 22826U 93061D 15169.08932900 .00000115 00000-0 61653-4 0 9994 2 22826 098.7029 119.3657 0007973 302.7319 057.3094 14.30203566133218 GO-32 1 25397U 98043D 15169.45026211 .00000039 00000-0 35678-4 0 9998 2 25397 098.5197 119.8523 0001190 023.3528 089.0878 14.23549394879974 NO-44 1 26931U 01043C 15169.13040445 .00000064 00000-0 56495-4 0 9995 2 26931 067.0496 174.6604 0005897 268.5061 091.5364 14.30320560715937 SO-50 1 27607U 02058C 15169.18967707 .00000582 00000-0 10326-3 0 9994 2 27607 064.5538 195.7384 0081498 288.1246 071.0992 14.74751744671436 CO-55 1 27844U 03031E 15169.04105392 .00000239 00000-0 12856-3 0 9997 2 27844 098.6948 177.5555 0008602 302.9379 126.7013 14.21810871620567 CO-57 1 27848U 03031J 15167.93367997 .00000227 00000-0 12370-3 0 9996 2 27848 098.7046 176.3712 0008668 314.6621 109.7079 14.21455997620270 AO-51 1 28375U 04025K 15167.89398168 .00000233 00000-0 82029-4 0 9991 2 28375 098.2923 108.3458 0082171 331.3391 028.3295 14.41669203576385 CP3 1 31129U 07012N 15169.16335859 .00000984 00000-0 22146-3 0 9997 2 31129 097.9806 134.8818 0095541 311.4511 112.5216 14.55840249433268 CO-65 1 32785U 08021C 15167.84277000 .00001715 00000-0 19749-3 0 9991 2 32785 097.6491 211.4184 0014925 070.6560 344.9734 14.86887359386100 PRISM 1 33493U 09002B 15169.83592241 .00004115 00000-0 39784-3 0 9994 2 33493 098.2492 007.3209 0015514 329.0370 030.9950 14.93313117346821 SOHLA-1 1 33496U 09002E 15169.95079066 .00000364 00000-0 67080-4 0 9998 2 33496 098.2123 297.8466 0006993 148.5106 325.1316 14.71372572343433 TISAT-1 1 36799U 10035E 15169.95864611 .00002346 00000-0 25807-3 0 9995 2 36799 098.0168 270.3536 0012746 195.3884 220.4837 14.88537413267221 STUDSAT 1 36801U 10035G 15168.93775057 .00021686 00000-0 12510-2 0 9995 2 36801 098.0623 288.4154 0007379 138.6700 338.3774 15.12360121268082 ALMASAT-1 1 38078U 12006B 15169.89474902 .00029740 35377-5 49131-3 0 9993 2 38078 069.4571 236.1317 0481746 255.1661 099.5671 14.78999389175297 CUBEBUG-1 1 39153U 13018D 15169.23447683 .00001209 00000-0 16956-3 0 9995 2 39153 098.0175 253.5956 0016020 247.8036 112.1475 14.79244247115638 ESTCUBE-1 1 39161U 13021C 15169.83354382 .00001207 00000-0 20400-3 0 9994 2 39161 098.0707 252.7467 0008596 316.7251 043.3255 14.71182189113480 DUCHIFAT-1 1 40021U 14033M 15169.51933112 .00002166 00000-0 24146-3 0 9990 2 40021 097.9544 070.1246 0013532 173.7285 186.4103 14.88050808 54008 NANOSATCBR1 1 40024U 14033Q 15169.91339223 .00001579 00000-0 17962-3 0 9995 2 40024 097.9526 070.3076 0012791 171.4104 188.7333 14.87634292 54054 DTUSAT-2 1 40030U 14033W 15169.52023644 .00001542 00000-0 17921-3 0 9991 2 40030 097.9514 069.5282 0012505 166.1686 193.9874 14.86785765 53986 ANTELSAT 1 40034U 14033AA 15169.67282444 .00001650 00000-0 25888-3 0 9997 2 40034 097.9457 061.6879 0061247 114.2673 246.4958 14.72729718 53515 MET-2/21 1 22782U 93055A 15168.74007690 .00000008 00000-0 -59968-5 0 9998 2 22782 082.5496 243.2286 0021399 322.3845 151.0880 13.83771584100679 OKEAN-4 1 23317U 94066A 15169.17805756 .00001167 00000-0 12819-3 0 9991 2 23317 082.5391 084.5029 0019397 331.0978 141.4227 14.86700053117457 NOAA-14 1 23455U 94089A 15169.25939187 .00000025 00000-0 35977-4 0 9997 2 23455 098.7523 250.6899 0010554 079.2177 347.5489 14.14044359 55681 NOAA-15 1 25338U 98030A 15167.73556817 .00000193 00000-0 10040-3 0 9994 2 25338 098.7721 166.3708 0010897 163.7215 196.4316 14.25632236888512 RESURS 1 25394U 98043A 15168.91433670 -.00000019 00000-0 99587-5 0 9995 2 25394 098.4650 123.9703 0000208 316.0037 110.8929 14.24458701880385 FENGYUN1 1 25730U 99025A 15169.11096469 .00001304 00000-0 71677-3 0 9999 2 25730 098.9429 133.9706 0020012 135.9568 354.7500 14.13395790829185 OKEAN-0 1 25860U 99039A 15168.85913244 .00000608 00000-0 95670-4 0 9993 2 25860 098.0940 136.9076 0001235 066.9994 347.1121 14.76059506856088 NOAA-16 1 26536U 00055A 15167.88246320 .00000040 00000-0 45468-4 0 9990 2 26536 098.9427 233.8616 0009721 229.6827 130.3496 14.13098669056113 NOAA-17 1 27453U 02032A 15167.93857473 .00000056 00000-0 41550-4 0 9994 2 27453 098.3396 153.9472 0011660 177.4683 182.6558 14.24887299674615 NOAA-18 1 28654U 05018A 15167.92069515 .00000170 00000-0 11803-3 0 9990 2 28654 099.1836 160.5565 0013642 325.4048 034.6234 14.12207876518940 NOAA-19 1 33591U 09005A 15169.51273950 .00000158 00000-0 11112-3 0 9992 2 33591 098.9898 119.3941 0014231 162.0098 198.1579 14.11945972327677 HUBBLE 1 20580U 90037B 15169.31036256 .00001667 00000-0 95761-4 0 9994 2 20580 028.4689 146.7217 0002773 247.1374 251.9665 15.07473779179987 ISS 1 25544U 98067A 15169.56162397 .00015334 00000-0 22690-3 0 9999 2 25544 051.6465 077.1561 0004412 065.8003 350.5572 15.55489182948252 CO-58 1 28895U 05043F 15169.01331689 .00000756 00000-0 15658-3 0 9993 2 28895 097.8213 356.7421 0015780 296.7471 063.2117 14.62801070513715 FALCON 1 30776U 07006E 15168.91894839 .00011362 00000-0 45360-3 0 9992 2 30776 035.4275 356.5549 0002969 308.2356 196.0862 15.24416601456413 MAST 1 31126U 07012K 15167.93091919 .00000648 00000-0 14958-3 0 9992 2 31126 097.9604 135.9741 0089681 297.1889 129.3707 14.56069910433398 CAPE1 1 31130U 07012P 15168.86980475 .00000950 00000-0 21542-3 0 9997 2 31130 097.9821 134.0726 0096277 314.3045 045.0286 14.55513531432984 COMPASS 1 32787U 08021E 15169.08025059 .00003367 00000-0 34759-3 0 9999 2 32787 097.6509 216.7233 0014392 055.5384 304.7192 14.90753161386648 AAUSAT2 1 32788U 08021F 15169.94560454 .00002921 00000-0 29457-3 0 9992 2 32788 097.6514 219.0786 0013678 050.3902 309.8522 14.91801395386860 DO-64 1 32789U 08021G 15167.78745619 .00008514 00000-0 68927-3 0 9990 2 32789 097.6714 227.8746 0011736 047.7708 019.4945 14.99928977387029 CO-66 1 32791U 08021J 15167.68784344 .00002682 00000-0 29167-3 0 9993 2 32791 097.6507 213.2223 0015349 064.9288 295.3521 14.88794234386163 RS-30 1 32953U 08025A 15169.84554215 .00000010 00000-0 -13620-7 0 9994 2 32953 082.5050 333.2113 0019900 077.2422 283.0879 12.43061010320812 METEOR-M 1 35865U 09049A 15169.97974647 .00000073 00000-0 51927-4 0 9992 2 35865 098.5004 210.2626 0003661 104.9249 317.5728 14.22032364298468 RS-38 1 35869U 09049E 15169.71896921 .00000063 00000-0 47079-4 0 9998 2 35869 098.4913 209.6387 0005381 103.9783 256.2025 14.22299070298478 JUGNU 1 37839U 11058B 15169.43104788 .00000368 00000-0 54477-4 0 9990 2 37839 019.9598 194.9771 0019191 060.4334 075.1070 14.12472308190396 SRMSAT 1 37841U 11058D 15169.51773405 .00000356 00000-0 51146-4 0 9997 2 37841 019.9708 221.1823 0011930 348.0807 151.3977 14.10483160190137 RAX-2 1 37853U 11061D 15167.81423906 .00008495 00000-0 51669-3 0 9994 2 37853 101.7117 018.6712 0196669 077.0117 347.9410 14.96156943196564 AUBIESAT 1 37854U 11061E 15169.19960669 .00007737 00000-0 45766-3 0 9999 2 37854 101.7172 024.2497 0187941 067.9749 047.8953 14.98316649197372 HRBE 1 37855U 11061F 15169.12292560 .00007393 00000-0 44257-3 0 9993 2 37855 101.7164 022.7283 0193973 070.5746 291.6311 14.97146704197299 HORYU-2 1 38340U 12025D 15167.84433486 .00001669 00000-0 25998-3 0 9996 2 38340 098.3128 137.7634 0013425 096.3152 263.9585 14.74312308165488 RS-40 1 38735U 12041C 15169.80262371 .00000040 00000-0 21992-3 0 9995 2 38735 082.4801 058.9780 0016339 172.3835 187.7501 12.42568145131113 PROITERES 1 38756U 12047B 15169.82622622 .00000786 00000-0 12233-3 0 9990 2 38756 098.2203 269.1392 0010978 296.3597 063.6479 14.75832782149245 BEESAT-3 1 39134U 13015E 15169.14164075 .00006652 00000-0 38931-3 0 9996 2 39134 064.8736 054.4649 0031236 251.4387 108.3343 15.12235602118844 BEESAT-2 1 39136U 13015G 15169.13180896 .00005620 00000-0 34580-3 0 9996 2 39136 064.8743 056.9039 0031517 250.7915 108.9797 15.10599322118800 ZACUBE-1 1 39417U 13066B 15168.80660432 .00001805 00000-0 23928-3 0 9991 2 39417 097.7300 231.3006 0061725 133.7144 226.9205 14.79722776 84720 TRITON-1 1 39427U 13066M 15169.09676463 .00001312 00000-0 22138-3 0 9990 2 39427 097.7152 219.7951 0116357 163.5683 196.9345 14.66648027 83997 DELFIN3XT 1 39428U 13066N 15169.10242816 .00002227 00000-0 37548-3 0 9991 2 39428 097.7148 218.1051 0124903 168.4414 191.9706 14.65386229 83874 GOMX-1 1 39430U 13066Q 15169.85804182 .00001275 00000-0 24459-3 0 9995 2 39430 097.7102 212.8518 0153470 183.9899 176.0070 14.58062145 83627 MO-76 1 39436U 13066W 15169.19237386 .00023396 00000-0 15551-2 0 9994 2 39436 097.7454 245.3482 0023791 102.7536 257.6352 15.06947391 85645 LO-74 1 39440U 13066AA 15169.15235111 .00001626 00000-0 23839-3 0 9990 2 39440 097.7245 226.9616 0083126 143.9547 216.7307 14.74537339 84476 PUCPSAT-1 1 39442U 13066AC 15169.96821669 .00001925 00000-0 21026-3 0 9998 2 39442 097.7393 239.9485 0034593 116.5092 243.9679 14.88612321 84132 SPROUT 1 39770U 14029E 15169.86827328 .00000965 00000-0 12285-3 0 9999 2 39770 097.8706 266.6622 0009778 187.6963 172.4050 14.83819330 57883 POPSAT-HIP1 1 40028U 14033U 15169.86940108 .00002059 00000-0 23557-3 0 9994 2 40028 097.9548 070.2139 0014311 170.3304 189.8176 14.87030199 54032 EO-80 1 40032U 14033Y 15169.93280949 .00001340 00000-0 15679-3 0 9995 2 40032 097.9523 069.9542 0012479 165.1252 195.0333 14.86711667 54040 VELOX-1 1 40057U 14034E 15169.82881699 .00002181 00000-0 32550-3 0 9991 2 40057 098.2153 247.9575 0010231 228.3371 131.6935 14.75849072 52123 DAURIA DX 1 1 40071U 14037C 15169.88490154 .00000988 00000-0 13688-3 0 9992 2 40071 098.3567 241.3692 0007508 228.9157 131.1380 14.80401666 51046 UKUBE-1 1 40074U 14037F 15169.85166954 .00002264 00000-0 29119-3 0 9995 2 40074 098.3584 242.1202 0003678 230.2229 129.8639 14.82209661 51082 HODOYOSHI-1 1 40299U 14070B 15169.86101351 .00004786 00000-0 22888-3 0 9999 2 40299 097.4562 251.3528 0014517 123.7044 329.8396 15.19376240 34076 CHUBUSAT-1 1 40300U 14070C 15169.87949391 .00005638 00000-0 28129-3 0 9998 2 40300 097.4528 250.6551 0023737 126.0910 325.9112 15.17669539 34034 QSAT-EOS 1 40301U 14070D 15169.85574084 .00010130 00000-0 50721-3 0 9996 2 40301 097.4489 249.9865 0033592 127.9093 325.9931 15.17081759 33997 TSUBAME 1 40302U 14070E 15169.85563743 .00005715 00000-0 31987-3 0 9993 2 40302 097.4469 248.8620 0044543 130.9866 322.6867 15.12975474 33929 FIREBIRD FU3 1 40377U 15003B 15169.57036675 .00005855 00000-0 29482-3 0 9992 2 40377 099.1175 203.2977 0156934 248.8331 109.6061 15.07568777 20752 FIREBIRD FU4 1 40378U 15003C 15169.96644045 .00005175 00000-0 26096-3 0 9995 2 40378 099.1176 203.7732 0157079 247.4707 110.9826 15.07591354 20819 GRIFEX 1 40379U 15003D 15169.93768842 .00003034 00000-0 15818-3 0 9997 2 40379 099.1183 203.6568 0157997 248.8473 109.5803 15.06890501 20801 LAMBDA-SAT 1 40458U 98067GB 15136.30676273 .20783109 12527-4 14817-2 0 9995 2 40458 051.6075 233.7697 0010355 318.5347 043.1720 16.39926603 21161 NO-84 1 40652U 15168.43283940 .00020368 00000-0 53228-3 0 00422 2 40652 054.9963 219.5544 0244855 250.7095 106.7205 15.13706510004218 NO-83 1 40661U 15168.43520714 .00013874 00000-0 36851-3 0 00433 2 40661 055.0080 219.6231 0245886 250.5659 106.8558 15.13406390004218 /EX